Regional Weather Roundup
Issued by NWS Kansas City/Pleasant Hill, MO

Home | Current Version | Previous Version | Graphics & Text | Print | Product List | Glossary Off
Versions: 1 2 3 4 5 6 7 8 9 10 11 12 13 14 15 16 17 18 19 20 21 22 23 24 25 26 27 28 29 30 31 32 33 34 35 36 37 38 39 40 41 42 43 44 45 46 47 48 49 50

000
ASUS43 KEAX 230211
RWREAX

WEATHER ROUNDUP FOR EASTERN KANSAS AND NORTHWEST MISSOURI
NATIONAL WEATHER SERVICE KANSAS CITY/PLEASANT HILL MO
900 PM CDT TUE JUL 22 2014

KSZ040-057-103>105-MOZ028-029-037-043-230300-
...KANSAS CITY METROPOLITAN AREA...

CITY           SKY/WX    TMP DP  RH WIND       PRES   REMARKS
K.C. INTL      FAIR      87  78  74 N10       30.03R HX 100
K.C. DOWNTOWN  FAIR      91  76  61 N7        30.00R HX 103
LEES SUMMIT    FAIR      89  76  65 NE6       30.03R HX 100
OLATHE - IXD   FAIR      87  76  69 S5        30.02S HX  97
OLATHE - OJC   FAIR      89  76  65 CALM      30.02R HX 100
LAWRENCE       FAIR      87  76  69 NW5       30.01R HX  97

$$

MOZ001>008-011>017-020>025-030>033-038>040-044>046-053-054-230300-
...NORTHERN AND CENTRAL MISSOURI...

CITY           SKY/WX    TMP DP  RH WIND       PRES   REMARKS
ST. JOSEPH     FAIR      84  80  88 NW3       30.02S HX  97
MOSBY          FAIR      88  77  70 CALM      30.02R HX 100
WHITEMAN AFB   FAIR      84  77  78 E1        30.02R HX  94
CLINTON        FAIR      84  81  89 CALM      30.02R FOG     HX  98
SEDALIA        FAIR      86  78  77 CALM      30.04R HAZE    HX  98
WARSAW         NOT AVBL
MARSHALL       FAIR      88  82  84 CALM      30.03R HAZE    HX 108
CHILLICOTHE      N/A     86  79  79 CALM      30.02R HX  99
MOBERLY        FAIR      82  75  78 CALM      30.03S
KIRKSVILLE     FAIR      84  80  88 E5        30.03R HX  97

$$

MOZ041-047>049-056>058-063>065-088>090-097-230300-
...EASTERN AND SOUTHERN MISSOURI...

CITY           SKY/WX    TMP DP  RH WIND       PRES   REMARKS
ST. LOUIS INTL CLOUDY    88  71  57 S9        30.02S HX  94
SPIRIT OF STL  MOCLDY    82  75  79 CALM      30.01R
COLUMBIA       FAIR      86  79  79 NW7       30.03R HX  99
JEFFERSON CITY FAIR      88  78  72 CALM      30.00R HX 101
MEXICO         MOCLDY    86  82  89 NW6       30.04R HX 105
ROLLA          MOCLDY    83  73  72 SW7       30.04R
LEBANON        FAIR      84  75  74 CALM      30.07R HX  92
OSAGE BEACH    FAIR      84  75  74 CALM      30.03R HX  92
SPRINGFIELD    FAIR      83  76  79 SW5       30.06R HX  91
BRANSON        PTCLDY    84  72  65 CALM      30.08R
NEVADA         FAIR      82  77  83 S6        30.04S HX  91
JOPLIN         FAIR      87  74  64 SW5       30.05R HX  95
WEST PLAINS    FAIR      79  70  74 CALM      30.09R
MALDEN         FAIR      81  72  74 W5        30.05R

$$

IAZ060-094-KSZ022-034>040-054-083-096-NEZ052-066-093-230300-
...KANSAS...SOUTHEAST NEBRASKA AND IOWA...

CITY           SKY/WX    TMP DP  RH WIND       PRES   REMARKS
TOPEKA         FAIR      91  77  63 N8        30.02R HX 104
MANHATTAN      FAIR      90  75  61 N5        30.03R HX 100
EMPORIA        FAIR      85  70  60 SW7       30.03R
CHANUTE        FAIR      85  74  69 SW6       30.03S HX  92
WICHITA        FAIR      87  72  60 S10       30.06R HX  93
OMAHA          MOCLDY    79  69  71 N7        30.11R
LINCOLN        FAIR      80  68  66 NE12      30.12R
FALLS CITY     FAIR      83  77  82 CALM      30.04S HX  92
LAMONI         FAIR      79  73  82 NE6       30.05R
DES MOINES     FAIR      82  68  62 N13       30.06R

$$




USA.gov is the U.S. government's official web portal to all federal, state and local government web resources and services.